Regional Weather Roundup
Issued by NWS

Home | Current Version | Previous Version | Text Only | Print | Product List | Glossary Off
Versions: 1 2 3 4 5 6 7 8 9 10 11 12 13 14 15 16 17 18 19 20 21 22 23 24 25 26 27 28 29 30 31 32 33 34 35 36 37 38 39 40 41 42 43 44 45 46 47 48 49 50

000
ASUS43 KLMK 242010
RWRKY
KENTUCKY REGIONAL WEATHER ROUNDUP
NATIONAL WEATHER SERVICE LOUISVILLE KY
300 PM EST MON NOV 24 2014

NOTE "FAIR" INDICATES FEW OR NO CLOUDS BELOW 12,000 FEET
WITH NO SIGNIFICANT WEATHER AND/OR OBSTRUCTIONS TO VISIBILITY.

KYZ001>023-026-027-061>063-070>075-242100-
WESTERN AND SOUTH CENTRAL KENTUCKY

CITY           SKY/WX    TMP DP  RH WIND       PRES   REMARKS
PADUCAH        MOSUNNY   50  32  50 SW21G29   29.79R
HENDERSON      CLOUDY    48  36  61 SW17G23   29.76R
OWENSBORO      PTSUNNY   50  36  58 SW17G28   29.76R
HOPKINSVILLE   MOSUNNY   55  35  47 SW22      29.79R
BOWLING GREEN  MOSUNNY   55  35  47 SW20G26   29.78R
GLASGOW        MOSUNNY   55  38  53 W13       29.77R
$$

KYZ024-025-028>034-038-045-046-053-242100-
NORTH CENTRAL KENTUCKY

CITY           SKY/WX    TMP DP  RH WIND       PRES   REMARKS
LOUISVILLE/SDF CLOUDY    48  34  58 W21G31    29.74R
LOUISVILLE/LOU CLOUDY    47  34  60 W20G31    29.75R
FORT KNOX      CLOUDY    46  36  66 SW16      29.74R
$$

KYZ035>037-039>044-047>052-055>060-089>105-242100-
NORTHEAST KENTUCKY

CITY           SKY/WX    TMP DP  RH WIND       PRES   REMARKS
LEXINGTON      CLOUDY    49  40  71 W18G26    29.73R
COVINGTON      CLOUDY    45  32  61 W13G30    29.68R
FRANKFORT      CLOUDY    48  36  63 SW22G31   29.72R
$$

KYZ054-064>069-076>088-106>120-242100-
SOUTHEAST KENTUCKY

CITY           SKY/WX    TMP DP  RH WIND       PRES   REMARKS
JACKSON        SUNNY     65  43  44 SW10G21   29.68R
LONDON         SUNNY     64  44  48 SW21G30   29.72R
SOMERSET       MOSUNNY   59  41  51 W17G24    29.76R
MIDDLESBORO    MOSUNNY   68  43  40 W8G16     29.71R
MONTICELLO     CLEAR     62  40  44 SW20G25   29.77R
$$



USA.gov is the U.S. government's official web portal to all federal, state and local government web resources and services.